This is the latest recevied weather packets stored in our database for station/object OK1FET-4. If no packets are shown the sender has not sent any weather packets the latest 10 day(s).
| Time | Temp. | Humidity | Pressure | Rain* | Wind** | Luminosity | Snow |
|---|---|---|---|---|---|---|---|
| 1777248745 | 5° C | 55% | 1024.5 hPa | - | - | - | - |
| 1777248445 | 5.56° C | 54% | 1024.5 hPa | - | - | - | - |
| 1777248145 | 5.56° C | 55% | 1024.5 hPa | - | - | - | - |
| 1777247845 | 5° C | 57% | 1024.5 hPa | - | - | - | - |
| 1777247546 | 5° C | 56% | 1024.6 hPa | - | - | - | - |
| 1777247246 | 5° C | 55% | 1024.6 hPa | - | - | - | - |
| 1777246946 | 5° C | 56% | 1024.6 hPa | - | - | - | - |
| 1777246647 | 5.56° C | 54% | 1024.6 hPa | - | - | - | - |
| 1777246347 | 5.56° C | 55% | 1024.6 hPa | - | - | - | - |
| 1777246047 | 5° C | 52% | 1024.6 hPa | - | - | - | - |
| 1777245747 | 5.56° C | 53% | 1024.6 hPa | - | - | - | - |
| 1777245447 | 5.56° C | 52% | 1024.6 hPa | - | - | - | - |
| 1777245148 | 6.11° C | 52% | 1024.5 hPa | - | - | - | - |
| 1777244848 | 6.11° C | 52% | 1024.6 hPa | - | - | - | - |
| 1777244548 | 6.11° C | 51% | 1024.6 hPa | - | - | - | - |
| 1777244248 | 6.11° C | 51% | 1024.5 hPa | - | - | - | - |
| 1777243949 | 6.67° C | 50% | 1024.5 hPa | - | - | - | - |
| 1777243649 | 6.67° C | 51% | 1024.6 hPa | - | - | - | - |
| 1777243349 | 7.22° C | 50% | 1024.7 hPa | - | - | - | - |
| 1777243049 | 6.67° C | 50% | 1024.7 hPa | - | - | - | - |
| 1777242749 | 6.67° C | 50% | 1024.7 hPa | - | - | - | - |
| 1777242449 | 6.67° C | 49% | 1024.6 hPa | - | - | - | - |
| 1777242149 | 6.67° C | 49% | 1024.6 hPa | - | - | - | - |
| 1777241850 | 6.67° C | 49% | 1024.6 hPa | - | - | - | - |
| 1777241550 | 6.67° C | 50% | 1024.6 hPa | - | - | - | - |
* Rain since midnight (hover to see other rain measurements)
** Current wind speed in m/s (hover to see current wind gust speed)